Location: Alpha Ridge Park
(39.3209°N, 76.9128°W)
Time: 12:10:00
(UTC-04:00)

Explorer 11/Cluster Stage 4 - Visible Passes

Search period start: 24 May 2019 00:00
Search period end: 03 June 2019 00:00
Orbit: 467 x 1260 km, 28.8° (Epoch: 24 May)

Date Brightness Start Highest point End Pass type
(mag) Time Alt. Az. Time Alt. Az. Time Alt. Az.
24 May 7.7 04:36:28 15° SSW 04:38:34 19° S 04:41:39 10° SE visible
25 May 7.6 04:26:13 18° SSW 04:28:00 21° S 04:31:24 10° SE visible
26 May 7.6 04:15:56 21° SSW 04:17:24 23° S 04:21:05 10° SE visible
27 May 7.5 04:05:41 24° SSW 04:06:48 25° S 04:10:46 10° SE visible
28 May 7.5 03:55:26 26° SSW 03:56:10 27° S 04:00:23 10° SE visible
29 May 7.5 03:45:13 28° S 03:45:31 28° S 03:49:58 10° SE visible
30 May 7.6 03:35:05 29° S 03:35:05 29° S 03:39:32 10° SE visible
31 May 7.7 03:25:04 29° S 03:25:04 29° S 03:29:03 10° SE visible
31 May 8.0 05:08:18 10° WSW 05:11:58 17° SSW 05:15:12 10° SSE visible
01 Jun 7.9 03:15:12 26° SSE 03:15:12 26° SSE 03:18:32 10° SE visible
01 Jun 8.1 04:57:38 10° WSW 05:01:15 16° SSW 05:04:29 10° SSE visible
01 Jun 9.1 21:36:01 10° SSE 21:36:26 10° SSE 21:36:26 10° SSE visible
02 Jun 8.2 03:05:34 22° SSE 03:05:34 22° SSE 03:07:58 10° SE visible
02 Jun 8.2 04:47:45 12° SW 04:50:31 15° SSW 04:53:41 10° S visible
02 Jun 8.9 21:23:26 10° S 21:26:36 13° SSE 21:28:12 12° SE visible
02 Jun 9.0 23:08:17 10° SW 23:10:28 17° SSW 23:10:28 17° SSW visible
